Location: Newark
(35.5580°S, 70.4960°W)
Time: 05:06:45
(UTC+00:00)

Hubble Space Telescope - Visible Passes

Search period start: 13 December 2019 00:00
Search period end: 23 December 2019 00:00
Orbit: 536 x 540 km, 28.5° (Epoch: 12 December)

Date Brightness Start Highest point End Pass type
(mag) Time Alt. Az. Time Alt. Az. Time Alt. Az.
13 Dec 1.7 01:36:34 10° WNW 01:40:06 30° N 01:40:06 30° N visible
14 Dec 1.8 01:25:57 10° WNW 01:29:34 28° N 01:30:04 28° N visible
15 Dec 1.9 01:15:22 10° WNW 01:18:53 27° N 01:19:58 24° NNE visible
16 Dec 2.1 01:04:49 10° WNW 01:08:13 24° N 01:09:49 19° NNE visible
17 Dec 2.3 00:54:18 10° WNW 00:57:32 22° NNW 00:59:40 15° NNE visible
18 Dec 2.5 00:43:51 10° WNW 00:46:51 19° NNW 00:49:30 11° NNE visible
19 Dec 2.7 00:33:28 10° WNW 00:36:09 17° NNW 00:38:51 10° NNE visible
20 Dec 3.0 00:23:14 10° NW 00:25:27 14° NNW 00:27:40 10° NNE visible
